Date String (YYYY-MM-DD hh:mm:ss) UTC,Instrument flags,absolute air pressure of the measurement (hPa),sample flow rate (lpm),inlet stack bypass flow (lpm),air temperature of the measurement (°C),ambient temperature measured by the external sensor (°C),aerosol sample conditioner tube jacket temperature (°C),OPC LED temperature (°C),internal box temperature (°C),relative humidity of the measurement (%),span deviation,mass concentration of particles derived from Lorenz-Mie calculation of OPC scattering (μg/m³),mass concentration of particles derived from Lorenz-Mie calculation of OPC scattering (μg/m³),mass concentration of particles derived from Lorenz-Mie calculation of OPC scattering (μg/m³)
DateTimeUTC,F1_M11,P_M11,Q1_M11,Q2_M11,T1_M11,T2_M11,T3_M11,T4_M11,T5_M11,U1_M11,ZSPAN_M11,X0_M11,X2_M11,X1_M11
2024-01-23 05:00:00,SystemResetWarning,0825.7,5.00,000.00,024.7,023.4,000.0,033.1,026.0,14.9,0002.7,0009.01,0005.65,0005.34
2024-01-23 05:01:00,SystemResetWarning,0825.7,5.00,000.00,024.7,023.4,000.0,033.0,026.0,14.9,0002.7,0009.07,0005.68,0005.37
2024-01-23 05:02:00,SystemResetWarning,0825.7,5.00,000.00,024.7,023.4,000.0,033.0,026.0,14.9,0002.4,0009.08,0005.69,0005.38
2024-01-23 05:03:00,SystemResetWarning,0825.8,5.00,000.00,024.6,023.4,000.0,033.0,026.0,14.9,0002.2,0009.34,0005.71,0005.39
2024-01-23 05:04:00,SystemResetWarning,0825.7,5.00,000.00,024.6,023.4,000.0,033.0,026.0,14.9,0002.4,0009.26,0005.68,0005.40
2024-01-23 05:05:00,SystemResetWarning,0825.8,5.00,000.00,024.6,023.4,000.0,033.0,026.0,14.9,0002.7,0009.25,0005.69,0005.43
2024-01-23 05:06:00,SystemResetWarning,0825.8,5.00,000.00,024.6,023.4,000.0,033.0,026.0,14.9,0002.7,0010.19,0005.73,0005.43
2024-01-23 05:07:00,SystemResetWarning,0825.8,5.00,000.00,024.6,023.4,000.0,033.0,026.0,15.0,0002.4,0010.41,0005.76,0005.42
2024-01-23 05:08:00,SystemResetWarning,0825.8,5.00,000.00,024.6,023.4,000.0,033.0,026.0,15.0,0003.3,0010.48,0005.76,0005.41
2024-01-23 05:09:00,SystemResetWarning,0825.8,5.00,000.00,024.6,023.4,000.0,033.0,026.0,15.0,0003.7,0010.49,0005.78,0005.42
2024-01-23 05:10:00,SystemResetWarning,0825.8,5.00,000.00,024.6,023.4,000.0,033.0,026.0,15.0,0003.5,0010.46,0005.77,0005.42
2024-01-23 05:11:00,SystemResetWarning,0825.8,5.00,000.00,024.6,023.4,000.0,033.0,025.9,15.0,0003.3,0009.99,0005.74,0005.41
2024-01-23 05:12:00,SystemResetWarning,0825.8,5.00,000.00,024.6,023.3,000.0,033.0,026.0,15.0,0003.2,0009.97,0005.71,0005.37
2024-01-23 05:13:00,SystemResetWarning,0825.8,4.99,000.00,024.6,023.3,000.0,033.0,025.9,15.0,0003.2,0009.98,0005.64,0005.30
2024-01-23 05:14:00,SystemResetWarning,0825.7,5.00,000.00,024.6,023.3,000.0,032.9,025.9,15.0,0003.7,0009.85,0005.56,0005.23
2024-01-23 05:15:00,SystemResetWarning,0825.8,5.00,000.00,024.6,023.3,000.0,032.9,025.9,15.0,0003.6,0009.69,0005.52,0005.19
2024-01-23 05:16:00,SystemResetWarning,0825.8,5.00,000.00,024.5,023.3,000.0,032.9,025.9,15.0,0003.4,0009.78,0005.51,0005.13
2024-01-23 05:17:00,SystemResetWarning,0825.8,5.00,000.00,024.5,023.3,000.0,032.9,025.9,15.0,0002.9,0009.26,0005.46,0005.10
2024-01-23 05:18:00,SystemResetWarning,0825.7,5.00,000.00,024.5,023.3,000.0,032.9,025.9,15.1,0002.7,0008.66,0005.40,0005.07
2024-01-23 05:19:00,SystemResetWarning,0825.7,5.00,000.00,024.5,023.3,000.0,032.9,025.9,15.1,0002.3,0008.48,0005.35,0005.04
2024-01-23 05:20:00,SystemResetWarning,0825.8,5.00,000.00,024.5,023.3,000.0,032.9,025.9,15.1,0002.0,0008.45,0005.34,0005.03
2024-01-23 05:21:00,SystemResetWarning,0825.8,5.00,000.00,024.5,023.3,000.0,032.9,025.9,15.1,0002.3,0008.54,0005.35,0005.02
2024-01-23 05:22:00,SystemResetWarning,0825.8,5.00,000.00,024.5,023.3,000.0,032.9,025.9,15.1,0002.8,0008.55,0005.34,0004.99
2024-01-23 05:23:00,SystemResetWarning,0825.8,5.00,000.00,024.5,023.3,000.0,032.9,025.9,15.1,0002.8,0008.46,0005.30,0004.98
2024-01-23 05:24:00,SystemResetWarning,0825.8,5.00,000.00,024.5,023.3,000.0,032.9,025.9,15.1,0002.8,0008.42,0005.30,0005.00
2024-01-23 05:25:00,SystemResetWarning,0825.8,5.00,000.00,024.5,023.3,000.0,032.9,025.8,15.1,0002.3,0008.38,0005.32,0005.01
2024-01-23 05:26:00,SystemResetWarning,0825.8,5.00,000.00,024.5,023.2,000.0,032.9,025.8,15.1,0002.3,0008.64,0005.33,0005.01
2024-01-23 05:27:00,SystemResetWarning,0825.7,5.01,000.00,024.5,023.2,000.0,032.8,025.9,15.1,0002.3,0008.60,0005.31,0005.00
2024-01-23 05:28:00,SystemResetWarning,0825.8,5.00,000.00,024.5,023.2,000.0,032.8,025.8,15.2,0002.5,0008.70,0005.29,0005.00
2024-01-23 05:29:00,SystemResetWarning,0825.8,4.99,000.00,024.4,023.2,000.0,032.8,025.8,15.3,0002.9,0008.96,0005.26,0004.98
2024-01-23 05:30:00,SystemResetWarning,0825.8,5.00,000.00,024.4,023.2,000.0,032.8,025.8,15.3,0003.1,0008.99,0005.25,0004.95
2024-01-23 05:31:00,SystemResetWarning,0825.8,5.00,000.00,024.4,023.2,000.0,032.8,025.8,15.3,0003.1,0008.97,0005.22,0004.92
2024-01-23 05:32:00,SystemResetWarning,0825.8,5.00,000.00,024.4,023.2,000.0,032.8,025.8,15.3,0003.0,0008.89,0005.18,0004.89
2024-01-23 05:33:00,SystemResetWarning,0825.8,5.00,000.00,024.4,023.2,000.0,032.8,025.7,15.2,0003.0,0009.35,0005.17,0004.86
2024-01-23 05:34:00,SystemResetWarning,0825.8,5.01,000.00,024.4,023.2,000.0,032.8,025.8,15.2,0003.1,0010.12,0005.17,0004.86
2024-01-23 05:35:00,SystemResetWarning,0825.8,5.00,000.00,024.4,023.2,000.0,032.8,025.7,15.2,0003.1,0010.17,0005.18,0004.84
2024-01-23 05:36:00,SystemResetWarning,0825.8,5.00,000.00,024.4,023.2,000.0,032.8,025.7,15.2,0003.2,0010.12,0005.17,0004.82
2024-01-23 05:37:00,SystemResetWarning,0825.8,5.00,000.00,024.4,023.2,000.0,032.8,025.7,15.3,0003.3,0009.84,0005.14,0004.80
2024-01-23 05:38:00,SystemResetWarning,0825.8,5.00,000.00,024.4,023.2,000.0,032.8,025.7,15.3,0003.6,0009.80,0005.12,0004.79
2024-01-23 05:39:00,SystemResetWarning,0825.8,5.00,000.00,024.4,023.2,000.0,032.8,025.7,15.3,0003.4,0009.83,0005.11,0004.77
2024-01-23 05:40:00,SystemResetWarning,0825.8,5.00,000.00,024.4,023.2,000.0,032.8,025.7,15.3,0003.3,0009.43,0005.10,0004.76
2024-01-23 05:41:00,SystemResetWarning,0825.9,5.00,000.00,024.4,023.1,000.0,032.8,025.7,15.3,0003.3,0009.45,0005.09,0004.76
2024-01-23 05:42:00,SystemResetWarning,0825.9,5.00,000.00,024.4,023.2,000.0,032.8,025.7,15.3,0003.4,0009.47,0005.06,0004.73
2024-01-23 05:43:00,SystemResetWarning,0825.9,5.00,000.00,024.4,023.2,000.0,032.8,025.7,15.3,0003.4,0009.44,0005.03,0004.70
2024-01-23 05:44:00,SystemResetWarning,0826.0,5.00,000.00,024.4,023.2,000.0,032.7,025.7,15.3,0003.4,0009.12,0004.99,0004.68
2024-01-23 05:45:00,SystemResetWarning,0825.9,5.00,000.00,024.3,023.2,000.0,032.7,025.7,15.4,0003.4,0008.23,0004.98,0004.66
2024-01-23 05:46:00,SystemResetWarning,0825.9,5.00,000.00,024.3,023.2,000.0,032.7,025.7,15.3,0003.4,0008.20,0004.96,0004.66
2024-01-23 05:47:00,SystemResetWarning,0825.9,5.01,000.00,024.3,023.2,000.0,032.7,025.7,15.3,0003.6,0008.11,0004.94,0004.66
2024-01-23 05:48:00,SystemResetWarning,0825.9,5.00,000.00,024.3,023.2,000.0,032.7,025.7,15.3,0003.7,0008.12,0004.94,0004.68
2024-01-23 05:49:00,SystemResetWarning,0825.9,5.00,000.00,024.3,023.3,000.0,032.7,025.7,15.3,0003.6,0008.23,0004.95,0004.68
2024-01-23 05:50:00,SystemResetWarning,0825.9,5.00,000.00,024.3,023.3,000.0,032.7,025.7,15.3,0003.7,0008.16,0004.94,0004.67
2024-01-23 05:51:00,SystemResetWarning,0825.9,5.00,000.00,024.3,023.3,000.0,032.7,025.7,15.3,0003.6,0008.09,0004.88,0004.61
2024-01-23 05:52:00,SystemResetWarning,0825.9,5.01,000.00,024.3,023.3,000.0,032.7,025.7,15.4,0003.7,0007.99,0004.83,0004.56
2024-01-23 05:53:00,SystemResetWarning,0825.9,5.00,000.00,024.3,023.3,000.0,032.7,025.7,15.4,0003.9,0007.84,0004.79,0004.54
2024-01-23 05:54:00,SystemResetWarning,0825.9,4.99,000.00,024.3,023.3,000.0,032.7,025.6,15.4,0004.1,0007.86,0004.81,0004.56
2024-01-23 05:55:00,SystemResetWarning,0825.8,5.00,000.00,024.3,023.3,000.0,032.7,025.6,15.4,0004.1,0007.81,0004.79,0004.55
2024-01-23 05:56:00,SystemResetWarning,0825.9,5.00,000.00,024.3,023.2,000.0,032.7,025.5,15.4,0003.9,0007.71,0004.76,0004.54
2024-01-23 05:57:00,SystemResetWarning,0825.9,5.00,000.00,024.3,023.2,000.0,032.7,025.5,15.5,0003.7,0007.61,0004.74,0004.52
2024-01-23 05:58:00,SystemResetWarning,0825.9,5.00,000.00,024.3,023.2,000.0,032.7,025.5,15.5,0003.3,0007.72,0004.73,0004.51
2024-01-23 05:59:00,SystemResetWarning,0825.9,5.00,000.00,024.3,023.2,000.0,032.7,025.6,15.5,0003.2,0008.17,0004.68,0004.44
